Hinckley, MN

5:30 AM CST on December 13, 2019 (GMT -0600)
Hinckley

Weather History for K04W - October, 2019

Change the Weather History Date:

Tuesday, October 15, 2019

  Actual Average (WUND) Record (WUND)
Temperature  
Mean Temperature 38 °F -  
Max Temperature 44 °F - - (-1)
Min Temperature 32 °F - - (-1)
Degree Days  
Heating Degree Days 27    
Moisture  
Dew Point 37 °F    
Average Humidity 88    
Maximum Humidity 100    
Minimum Humidity 76    
Precipitation  
Precipitation 0.04 in - - ()
Sea Level Pressure  
Sea Level Pressure 29.88 in    
Wind  
Wind Speed 6 mph (North)    
Max Wind Speed 12 mph    
Max Gust Speed 18 mph    
Visibility 10 miles    
Events Rain    
Averages and records for this station are not official NWS values.
T = Trace of Precipitation, MM = Missing Value Source: NWS Daily Summary

Daily Weather History Graph

Daily Weather History Graph

Search for Another Location

Airport or City:

Astronomy

Oct. 15, 2019 Rise Set
Actual Time 7:28 AM CDT 6:25 PM CDT
Civil Twilight 6:58 AM CDT 6:55 PM CDT
Nautical Twilight 6:23 AM CDT 7:30 PM CDT
Astronomical Twilight 5:48 AM CDT 8:05 PM CDT
Moon 7:41 PM CDT (10/15) 9:02 AM CDT (10/15)
Length of Visible Light 11h 57m
Length of Day
10h 57m
Full, 97% of the Moon is Illuminated
Oct 15
Full
Oct 21
Last Quarter
Oct 27
New
Nov 4
First Quarter
Nov 12
Full

Hourly Weather History & Observations

Time (CDT) Temp. Windchill Dew Point Humidity Pressure Visibility Wind Dir Wind Speed Gust Speed Precip Events Conditions
12:15 AM 32.0 °F - 32.0 °F 100% 29.93 in 10.0 mi Calm Calm - N/A   Clear
12:16 AM 32.0 °F - 32.0 °F 100% 29.93 in 10.0 mi Calm Calm - N/A   Clear
12:35 AM 32.0 °F 28.7 °F 32.0 °F 100% 29.92 in 10.0 mi NNE 3.5 mph - N/A   Clear
12:36 AM 32.0 °F 28.7 °F 32.0 °F 100% 29.92 in 10.0 mi NNE 3.5 mph - N/A   Clear
12:58 AM 32.0 °F 28.7 °F 32.0 °F 100% 29.91 in 10.0 mi NE 3.5 mph - N/A   Clear
1:17 AM 32.0 °F 28.7 °F 32.0 °F 100% 29.91 in 10.0 mi NE 3.5 mph - N/A   Scattered Clouds
1:36 AM 32.0 °F - 32.0 °F 100% 29.91 in 10.0 mi Calm Calm - N/A   Overcast
1:55 AM 33.8 °F 29.6 °F 33.8 °F 100% 29.90 in 10.0 mi NE 4.6 mph - N/A   Overcast
1:56 AM 33.8 °F 30.8 °F 33.8 °F 100% 29.90 in 10.0 mi NE 3.5 mph - N/A   Overcast
2:18 AM 35.6 °F - 33.8 °F 93% 29.88 in 10.0 mi Calm Calm - N/A   Overcast
2:36 AM 35.6 °F 31.7 °F 33.8 °F 93% 29.88 in 10.0 mi ENE 4.6 mph - N/A   Overcast
2:56 AM 37.4 °F 33.8 °F 33.8 °F 87% 29.86 in 10.0 mi NE 4.6 mph - N/A   Overcast
3:15 AM 37.4 °F 32.8 °F 33.8 °F 87% 29.85 in 10.0 mi NNE 5.8 mph - N/A   Overcast
3:38 AM 37.4 °F 32.8 °F 33.8 °F 87% 29.84 in 10.0 mi NNE 5.8 mph - N/A   Mostly Cloudy
3:55 AM 37.4 °F 33.8 °F 33.8 °F 87% 29.83 in 10.0 mi NE 4.6 mph - N/A   Overcast
4:15 AM 37.4 °F 34.9 °F 33.8 °F 87% 29.82 in 10.0 mi NE 3.5 mph - N/A   Overcast
4:16 AM 37.4 °F 33.8 °F 33.8 °F 87% 29.82 in 10.0 mi NE 4.6 mph - N/A   Overcast
4:35 AM 37.4 °F 32.8 °F 33.8 °F 87% 29.81 in 10.0 mi ENE 5.8 mph - N/A   Overcast
4:36 AM 37.4 °F 32.8 °F 33.8 °F 87% 29.80 in 10.0 mi ENE 5.8 mph - N/A   Overcast
4:59 AM 37.4 °F 34.9 °F 33.8 °F 87% 29.80 in 10.0 mi NE 3.5 mph - N/A   Mostly Cloudy
5:16 AM 37.4 °F 33.8 °F 33.8 °F 87% 29.81 in 10.0 mi NNE 4.6 mph - N/A   Mostly Cloudy
5:36 AM 39.2 °F 35.0 °F 33.8 °F 81% 29.81 in 10.0 mi NNE 5.8 mph - N/A   Overcast
5:55 AM 39.2 °F 35.9 °F 33.8 °F 81% 29.82 in 10.0 mi North 4.6 mph - N/A   Overcast
5:56 AM 39.2 °F 35.9 °F 33.8 °F 81% 29.82 in 10.0 mi North 4.6 mph - N/A   Overcast
6:15 AM 39.2 °F 33.6 °F 33.8 °F 81% 29.81 in 10.0 mi NNE 8.1 mph - N/A   Overcast
6:19 AM 39.2 °F 34.2 °F 33.8 °F 81% 29.81 in 10.0 mi NNE 6.9 mph - N/A   Overcast
6:37 AM 39.2 °F 33.6 °F 33.8 °F 81% 29.81 in 10.0 mi NNE 8.1 mph - N/A   Overcast
6:55 AM 41.0 °F 36.4 °F 33.8 °F 76% 29.81 in 10.0 mi NNE 6.9 mph - N/A   Overcast
7:15 AM 39.2 °F 35.0 °F 33.8 °F 81% 29.81 in 10.0 mi North 5.8 mph - N/A   Overcast
7:16 AM 39.2 °F 35.0 °F 33.8 °F 81% 29.81 in 10.0 mi North 5.8 mph - N/A   Overcast
7:35 AM 39.2 °F 34.2 °F 33.8 °F 81% 29.80 in 10.0 mi North 6.9 mph - N/A   Overcast
7:36 AM 39.2 °F 33.6 °F 33.8 °F 81% 29.80 in 10.0 mi North 8.1 mph - N/A   Overcast
7:58 AM 39.2 °F 33.0 °F 33.8 °F 81% 29.79 in 10.0 mi NNE 9.2 mph - N/A   Overcast
8:17 AM 41.0 °F 35.8 °F 33.8 °F 76% 29.80 in 10.0 mi North 8.1 mph - N/A   Overcast
8:36 AM 41.0 °F 36.4 °F 33.8 °F 76% 29.80 in 10.0 mi NNE 6.9 mph - N/A   Overcast
8:55 AM 41.0 °F 35.2 °F 33.8 °F 76% 29.79 in 10.0 mi North 9.2 mph - N/A   Overcast
9:15 AM 41.0 °F 36.4 °F 33.8 °F 76% 29.81 in 10.0 mi North 6.9 mph - N/A   Light Drizzle
9:20 AM 41.0 °F 35.8 °F 35.6 °F 81% 29.81 in 10.0 mi North 8.1 mph - N/A   Drizzle
9:37 AM 41.0 °F 35.2 °F 35.6 °F 81% 29.81 in 10.0 mi North 9.2 mph - N/A Rain Rain
9:55 AM 41.0 °F 35.8 °F 37.4 °F 87% 29.82 in 10.0 mi North 8.1 mph - N/A Rain Rain
9:56 AM 41.0 °F 35.8 °F 37.4 °F 87% 29.82 in 10.0 mi North 8.1 mph - N/A Rain Rain
10:15 AM 41.0 °F 35.8 °F 37.4 °F 87% 29.81 in 5.0 mi NNE 8.1 mph - 0.03 in Rain Light Rain
10:16 AM 41.0 °F 35.8 °F 37.4 °F 87% 29.81 in 5.0 mi NNE 8.1 mph - 0.03 in Rain Light Rain
10:35 AM 41.0 °F 37.1 °F 41.0 °F 100% 29.82 in 10.0 mi NNW 5.8 mph - 0.03 in   Overcast
10:39 AM 41.0 °F 35.2 °F 41.0 °F 100% 29.82 in 10.0 mi NNW 9.2 mph - 0.03 in   Overcast
10:57 AM 42.8 °F 37.5 °F 41.0 °F 93% 29.82 in 10.0 mi North 9.2 mph - 0.03 in   Overcast
11:15 AM 42.8 °F 37.5 °F 39.2 °F 87% 29.82 in 10.0 mi NNE 9.2 mph - N/A   Overcast
11:35 AM 42.8 °F 38.0 °F 41.0 °F 93% 29.83 in 10.0 mi North 8.1 mph - N/A   Light Drizzle
11:55 AM 44.6 °F 39.7 °F 41.0 °F 87% 29.84 in 10.0 mi North 9.2 mph - N/A   Overcast
11:56 AM 44.6 °F 38.8 °F 42.8 °F 93% 29.84 in 10.0 mi North 11.5 mph 17.3 mph N/A   Overcast
12:19 PM 44.6 °F 38.8 °F 39.2 °F 81% 29.84 in 10.0 mi North 11.5 mph 18.4 mph N/A   Overcast
12:36 PM 44.6 °F 40.2 °F 41.0 °F 87% 29.84 in 10.0 mi NNE 8.1 mph - N/A   Overcast
12:55 PM 44.6 °F 39.2 °F 39.2 °F 81% 29.85 in 10.0 mi North 10.4 mph - N/A   Light Drizzle
1:15 PM 44.6 °F 38.8 °F 41.0 °F 87% 29.85 in 10.0 mi North 11.5 mph - N/A Rain Light Rain
1:16 PM 44.6 °F 39.2 °F 41.0 °F 87% 29.85 in 10.0 mi North 10.4 mph - N/A Rain Light Rain
1:35 PM 42.8 °F 37.5 °F 39.2 °F 87% 29.85 in 10.0 mi North 9.2 mph 18.4 mph N/A   Drizzle
1:40 PM 42.8 °F 38.6 °F 39.2 °F 87% 29.85 in 10.0 mi North 6.9 mph - N/A   Drizzle
1:57 PM 42.8 °F 38.0 °F 41.0 °F 93% 29.86 in 10.0 mi NNW 8.1 mph - N/A   Light Drizzle
2:15 PM 42.8 °F 38.0 °F 41.0 °F 93% 29.86 in 10.0 mi North 8.1 mph - N/A   Overcast
2:35 PM 42.8 °F 38.0 °F 39.2 °F 87% 29.86 in 10.0 mi North 8.1 mph - N/A   Overcast
2:36 PM 42.8 °F 37.5 °F 39.2 °F 87% 29.86 in 10.0 mi North 9.2 mph - N/A   Overcast
2:55 PM 42.8 °F 39.3 °F 39.2 °F 87% 29.87 in 10.0 mi NNW 5.8 mph - N/A   Light Drizzle
2:56 PM 42.8 °F 39.3 °F 39.2 °F 87% 29.87 in 10.0 mi NNW 5.8 mph - N/A   Light Drizzle
3:18 PM 44.6 °F 40.7 °F 41.0 °F 87% 29.88 in 10.0 mi NNW 6.9 mph - N/A   Overcast
3:36 PM 44.6 °F 42.2 °F 39.2 °F 81% 29.88 in 10.0 mi North 4.6 mph - N/A   Overcast
3:56 PM 44.6 °F 40.7 °F 39.2 °F 81% 29.89 in 10.0 mi North 6.9 mph - N/A   Overcast
4:15 PM 42.8 °F 38.6 °F 41.0 °F 93% 29.89 in 7.0 mi North 6.9 mph - N/A Rain Light Rain
4:16 PM 42.8 °F 38.0 °F 41.0 °F 93% 29.89 in 5.0 mi North 8.1 mph - N/A Rain Light Rain
4:35 PM 42.8 °F 38.6 °F 41.0 °F 93% 29.90 in 7.0 mi NNW 6.9 mph - N/A Rain Light Rain
4:39 PM 42.8 °F 40.1 °F 41.0 °F 93% 29.90 in 10.0 mi NW 4.6 mph - N/A Rain Light Rain
4:58 PM 42.8 °F 37.5 °F 41.0 °F 93% 29.91 in 10.0 mi NW 9.2 mph - 0.01 in Rain Rain
5:16 PM 42.8 °F 38.6 °F 41.0 °F 93% 29.92 in 10.0 mi NW 6.9 mph - N/A   Light Drizzle
5:35 PM 42.8 °F 37.5 °F 41.0 °F 93% 29.93 in 10.0 mi NNW 9.2 mph - N/A Rain Light Rain
5:36 PM 42.8 °F 36.6 °F 41.0 °F 93% 29.93 in 10.0 mi NNW 11.5 mph - N/A Rain Light Rain
5:55 PM 42.8 °F 38.0 °F 41.0 °F 93% 29.93 in 10.0 mi NNW 8.1 mph - N/A   Light Drizzle
6:19 PM 42.8 °F 38.0 °F 39.2 °F 87% 29.94 in 10.0 mi NNW 8.1 mph - N/A   Light Drizzle
6:36 PM 41.0 °F 36.4 °F 39.2 °F 93% 29.95 in 10.0 mi NNW 6.9 mph - N/A   Light Drizzle
6:55 PM 41.0 °F 36.4 °F 37.4 °F 87% 29.95 in 10.0 mi NNW 6.9 mph - N/A   Overcast
6:56 PM 41.0 °F 35.8 °F 37.4 °F 87% 29.96 in 10.0 mi NNW 8.1 mph - N/A   Overcast
7:39 PM 41.0 °F 34.3 °F 37.4 °F 87% 29.97 in 10.0 mi NW 11.5 mph - N/A   Light Drizzle
7:56 PM 41.0 °F 34.7 °F 37.4 °F 87% 29.98 in 10.0 mi NW 10.4 mph - N/A   Overcast
8:15 PM 41.0 °F 35.2 °F 37.4 °F 87% 29.98 in 10.0 mi NNW 9.2 mph - N/A   Mostly Cloudy
8:35 PM 41.0 °F 35.2 °F 37.4 °F 87% 29.99 in 10.0 mi NNW 9.2 mph - N/A   Overcast
8:36 PM 41.0 °F 35.2 °F 37.4 °F 87% 29.99 in 10.0 mi NW 9.2 mph - N/A   Overcast
8:55 PM 41.0 °F 35.2 °F 37.4 °F 87% 29.99 in 10.0 mi NNW 9.2 mph - N/A   Overcast
9:00 PM 41.0 °F 35.8 °F 37.4 °F 87% 29.99 in 10.0 mi NW 8.1 mph - N/A   Overcast
9:16 PM 41.0 °F 35.2 °F 37.4 °F 87% 30.00 in 10.0 mi NW 9.2 mph - N/A   Overcast
9:35 PM 41.0 °F 34.7 °F 37.4 °F 87% 30.01 in 10.0 mi NNW 10.4 mph - N/A   Overcast
9:55 PM 41.0 °F 35.2 °F 37.4 °F 87% 30.01 in 10.0 mi NNW 9.2 mph - N/A   Overcast
9:56 PM 41.0 °F 35.2 °F 37.4 °F 87% 30.01 in 10.0 mi NW 9.2 mph - N/A   Overcast
10:15 PM 41.0 °F 35.2 °F 37.4 °F 87% 30.01 in 10.0 mi NW 9.2 mph - N/A   Overcast
10:37 PM 41.0 °F 35.8 °F 37.4 °F 87% 30.01 in 10.0 mi NNW 8.1 mph - N/A   Overcast
10:56 PM 41.0 °F 35.2 °F 37.4 °F 87% 30.02 in 10.0 mi NW 9.2 mph - N/A   Overcast
11:15 PM 41.0 °F 35.8 °F 37.4 °F 87% 30.02 in 10.0 mi NW 8.1 mph - N/A   Overcast
11:16 PM 41.0 °F 35.2 °F 37.4 °F 87% 30.02 in 10.0 mi NW 9.2 mph - N/A   Overcast
11:35 PM 41.0 °F 36.4 °F 37.4 °F 87% 30.02 in 10.0 mi NW 6.9 mph - N/A   Overcast
11:39 PM 41.0 °F 36.4 °F 37.4 °F 87% 30.02 in 10.0 mi NW 6.9 mph - N/A   Overcast
11:57 PM 41.0 °F 35.2 °F 37.4 °F 87% 30.02 in 10.0 mi NW 9.2 mph - N/A   Overcast